Location: Chrome
(40.5765°N, 74.2163°W)
Time: 19:04:07
(UTC+00:00)

CZ-4 R/B - Pass Details

Date: 06 December 2019
Orbit: 532 x 598 km, 97.7° (Epoch: 19 January)

Event Time Altitude Azimuth Distance (km) Brightness Sun altitude
Rises 23:25:31 0° 172° (S) 2,733 4.9 -21.3°
Reaches altitude 10° 23:27:40 10° 174° (S) 1,832 4.0 -21.7°
Maximum altitude 23:31:36 69° 258° (WSW) 590 1.5 -22.5°
Drops below altitude 10° 23:35:30 10° 343° (NNW) 1,813 4.0 -23.2°
Sets 23:37:37 0° 345° (NNW) 2,703 4.9 -23.6°
